User: anonymous   Login
Location: Nelson
(41.2830°S, 173.2830°E)
Time: 23:57:10
(UTC+13:00)
Language:

Spot 2 Rocket - Orbit

View from above orbital plane
View from above orbital plane
View from above satellite
View from above satellite

Ground track
Ground track

The orbit data is extracted from the following two-line orbital elements,

1 20443U 90005H   19078.50230161 +.00000000 +00000-0 +15068-4 0  9994
2 20443 098.6378 134.4374 0009316 257.8899 102.1244 14.38056071526584
Epoch (UTC): 19 March 2019 12:03:18
Eccentricity: 0.0009316
inclination: 98.6378°
perigee height: 758 km
apogee height: 771 km
right ascension of ascending node: 134.4374°
argument of perigee: 257.8899°
revolutions per day: 14.38056071
mean anomaly at epoch: 102.1244°
orbit number at epoch: 52658

The dashed part of the orbit path shows where the satellite is in the earth's shadow,  

DLR